Temperature
24 24 25 24 21 19 21 23 25 25 25 26 26 25 25 24 23 22 22 22 22 22 21 21 21 21 21 21 21 20 20 20 20 20 20 20 19 19 19 19 19 19 19 19 19 19 19 19 19
24 24 25 24 20 20 21 24 25 26 26 26 26 26 25 24 23 22 21 22 22 22 21 21 21 21 20 20 20 20 20 20 20 19 19 19 19 19 19 19 19 19 19 19 19 19 19 19 19
24 24 24 20 20 20 22 24 25 27 27 27 26 26 25 24 22 22 22 22 22 22 21 21 21 20 20 20 20 20 20 19 19 19 19 19 19 19 19 19 19 19 19 19 19 19 19 19 19
23 24 23 19 21 21 23 25 26 27 28 27 26 25 25 24 24 23 22 22 22 22 21 21 20 20 20 20 20 20 19 19 19 19 19 19 19 19 19 19 19 19 19 19 19 19 19 19 19
23 23 20 19 20 22 24 26 27 27 28 28 26 24 23 24 24 23 22 22 22 21 21 21 20 20 20 20 20 20 19 19 19 19 19 19 19 19 19 19 19 19 19 19 19 19 19 19 19
22 20 18 19 21 23 24 27 27 27 28 27 25 23 22 23 24 23 22 22 22 22 21 20 20 20 20 20 20 20 19 19 19 19 19 19 19 19 19 19 19 19 19 19 19 19 19 19 19
21 17 18 19 21 22 25 27 27 26 27 27 26 22 22 21 23 22 22 22 22 21 21 20 20 20 20 20 20 20 19 19 19 19 19 19 19 19 19 19 19 19 19 19 19 19 19 19 19
22 17 20 20 21 22 25 26 28 27 27 27 26 23 22 22 22 22 22 22 21 21 21 21 20 20 20 20 20 20 20 19 19 19 19 19 19 19 19 19 19 19 19 19 19 19 19 19 19
22 17 17 19 21 22 25 25 27 28 27 27 26 26 24 23 22 21 21 21 21 21 21 21 20 20 20 20 20 20 20 19 19 19 19 19 19 19 19 18 18 18 18 18 18 18 19 19 18
21 16 18 21 22 23 24 25 27 27 26 25 25 25 24 23 22 21 21 21 21 21 21 21 21 20 20 20 20 20 20 20 20 20 19 19 19 19 18 18 18 18 18 18 18 18 18 18 18
20 18 20 22 24 25 24 26 27 26 24 25 25 24 23 23 22 22 21 22 22 21 21 21 21 21 20 20 20 20 20 20 20 20 19 19 19 19 18 18 18 18 18 18 18 18 18 18 18
20 21 22 23 25 25 25 26 27 26 26 27 26 25 24 23 23 22 22 22 22 22 22 22 21 21 21 21 21 21 20 20 20 20 19 19 19 19 19 18 18 18 18 18 18 18 18 18 18
20 20 23 24 25 25 26 26 26 26 27 26 25 25 24 24 23 23 22 23 22 22 22 22 21 21 21 21 21 20 20 20 20 20 20 19 19 19 18 18 17 17 17 17 17 17 17 17 17
21 22 23 24 25 25 25 25 26 26 26 25 25 25 25 24 24 23 23 22 23 22 22 22 22 22 21 21 21 21 20 20 20 20 20 19 19 18 18 18 17 17 17 17 17 17 17 17 17
23 21 21 22 24 25 25 24 24 26 25 25 24 24 24 24 24 24 24 23 23 23 23 22 22 22 22 21 21 20 20 20 20 20 19 19 18 18 18 17 17 17 17 17 17 17 16 17 17
21 21 20 21 23 25 24 22 24 26 25 25 24 24 24 24 24 24 24 24 23 23 23 22 22 22 21 21 20 20 20 20 20 19 19 19 18 18 17 17 17 17 17 16 16 16 16 16 16
19 19 20 21 23 24 23 22 23 27 25 24 24 23 23 23 23 24 24 24 23 23 23 22 22 22 21 21 20 20 20 19 19 19 19 18 18 18 17 17 17 17 16 16 16 16 16 16 16
19 20 20 21 22 23 22 22 23 26 25 24 24 23 22 22 23 23 24 24 23 23 22 22 22 22 21 21 20 20 19 19 19 18 18 18 18 17 17 17 16 16 16 16 16 16 16 15 15
20 20 20 21 23 23 22 23 23 23 23 22 22 21 20 20 21 23 23 23 23 23 22 22 22 21 21 20 20 19 19 19 18 18 18 17 17 17 17 16 16 16 16 15 15 15 15 15 15
20 20 20 21 23 23 22 22 22 21 21 21 20 19 18 19 20 22 22 22 22 22 22 22 22 21 21 21 20 20 19 18 18 18 17 17 17 16 16 16 16 15 15 15 15 14 14 14 14
20 20 20 21 22 22 22 22 21 20 19 18 17 17 17 18 18 20 20 21 21 21 21 21 21 21 21 20 20 19 19 18 18 17 17 16 16 16 15 15 15 15 14 14 14 14 14 13 13
19 21 22 22 21 19 21 20 20 19 17 17 16 15 15 16 17 17 18 19 20 20 20 20 20 20 20 20 19 19 18 18 17 16 16 15 15 15 15 14 14 14 14 13 13 13 13 12 12
20 22 22 22 21 20 20 19 19 18 17 16 15 14 14 15 15 16 17 17 18 18 18 19 19 19 19 19 18 18 17 17 16 15 15 15 14 14 14 13 13 13 13 12 12 12 12 12 11
22 22 21 19 18 19 20 20 18 17 17 16 14 14 13 14 14 14 15 16 16 17 17 17 18 17 17 17 17 17 16 16 15 14 14 14 13 13 13 12 12 12 12 11 11 11 11 10 10
21 18 17 18 17 18 19 19 17 16 16 15 14 13 13 13 13 14 14 15 15 15 16 16 16 16 16 16 16 15 15 15 14 14 13 13 12 12 11 11 11 11 11 10 10 10 10 9 9
20 18 17 18 18 18 19 17 16 15 14 13 12 12 12 12 12 13 13 13 14 14 15 15 15 15 15 15 14 14 14 13 13 12 12 12 11 11 10 10 10 10 9 9 9 8 8 8 8
20 18 18 17 18 18 17 16 15 15 14 13 12 12 12 12 12 12 12 12 13 13 13 13 13 13 13 13 13 13 12 12 12 11 11 11 10 10 9 9 9 8 8 8 8 7 7 7 7
20 19 16 16 17 17 18 17 16 14 13 13 12 11 11 11 11 11 11 11 11 12 12 12 12 12 12 12 12 11 11 11 10 10 10 9 9 8 8 8 7 7 7 7 7 6 6 6 6
19 19 17 16 16 17 17 16 16 14 13 12 11 11 11 11 10 10 10 10 10 11 11 11 11 11 11 10 10 10 10 9 9 9 8 8 7 7 7 7 6 6 6 6 6 5 5 5 5
19 18 16 16 16 16 16 15 14 13 12 11 11 10 10 10 10 10 10 10 10 10 10 10 10 10 9 9 9 9 8 8 8 7 7 7 6 6 6 6 6 5 5 5 5 4 4 4 4
Wind_Speed
15 13 1 3 5 4 3 4 5 4 2 2 3 6 7 4 4 4 4 17 19 17 17 20 21 22 21 21 21 20 20 19 19 19 19 20 19 19 18 17 16 15 14 13 12 12 11 11 11
8 6 4 5 4 2 5 4 2 5 5 4 4 5 7 5 7 10 8 16 20 18 17 19 22 22 22 22 21 20 20 19 19 19 19 19 18 18 17 16 15 14 13 12 11 10 9 8 8
7 2 3 4 2 4 6 5 6 5 5 7 5 3 5 7 10 8 11 19 18 15 17 20 22 22 22 22 21 20 20 19 19 19 18 18 17 17 16 15 13 12 11 10 9 8 7 6 6
4 5 5 3 7 8 8 13 10 8 4 4 7 5 4 5 8 13 20 20 19 14 17 20 22 22 22 22 21 20 20 19 19 18 18 18 17 16 15 14 13 11 10 9 8 7 5 4 3
4 4 2 3 8 8 9 12 12 9 4 4 8 7 4 4 18 23 21 19 19 14 14 19 21 22 22 21 21 20 20 19 19 18 18 18 17 16 15 13 12 11 10 8 7 6 4 3 2
4 4 2 6 10 9 10 10 9 8 2 5 8 8 4 11 20 21 19 17 17 16 14 17 21 22 21 21 20 20 20 19 19 19 18 18 17 16 14 13 12 11 10 8 7 6 4 3 2
5 4 6 7 8 11 15 10 7 6 4 6 9 8 7 12 18 19 18 17 15 14 13 13 17 19 21 20 20 20 20 20 19 19 19 18 17 16 14 13 12 11 10 9 8 7 6 5 4
6 5 5 6 7 12 12 9 7 7 5 6 7 11 10 15 18 18 17 16 15 13 12 10 13 15 16 18 20 20 20 20 19 19 18 17 17 16 15 14 13 12 11 11 9 8 7 6 6
5 3 6 8 8 9 10 10 11 6 3 3 5 8 14 22 21 19 17 14 13 13 11 10 10 13 15 16 18 19 19 19 19 18 18 17 15 15 15 14 14 13 12 11 10 9 8 7 7
6 6 10 8 7 9 13 13 12 5 2 3 6 10 20 21 21 20 20 19 16 16 14 11 11 12 14 14 15 15 15 16 16 16 16 15 15 14 14 15 15 14 13 11 10 10 9 7 7
7 8 9 11 13 12 13 14 9 0 2 7 15 19 20 18 18 19 20 20 19 18 17 15 13 13 12 9 12 11 11 13 14 15 16 15 13 12 12 11 13 13 12 10 8 8 8 6 6
5 8 9 11 13 10 11 9 8 3 6 9 16 21 20 17 16 16 19 19 18 18 18 17 16 13 12 11 11 11 10 10 11 14 16 13 8 8 9 9 10 10 9 7 6 6 6 6 5
7 11 13 14 14 12 10 8 6 5 3 8 13 17 19 18 13 11 12 16 17 18 18 19 17 16 12 10 9 10 9 11 13 14 15 14 8 5 7 7 9 9 8 7 5 5 4 2 1
8 8 10 11 13 10 9 10 4 4 5 9 13 14 15 16 15 11 10 12 16 18 18 18 18 17 14 13 11 9 11 12 13 13 15 16 12 7 6 4 5 6 8 7 5 4 2 1 3
5 8 11 9 8 7 5 8 8 7 6 8 10 12 13 13 14 14 13 12 15 17 17 18 18 17 17 15 13 10 11 12 10 12 15 15 13 10 7 4 4 5 7 6 5 4 4 3 4
5 3 5 10 6 6 4 10 12 6 8 8 9 11 11 9 9 10 11 9 9 12 15 17 17 16 16 14 11 8 10 10 9 11 12 13 13 11 8 5 4 6 7 6 4 4 3 3 3
3 2 6 9 6 4 5 10 11 7 8 9 10 11 10 6 4 5 7 7 6 8 11 14 14 15 14 12 9 7 7 7 8 9 9 9 9 10 8 5 5 8 6 4 4 3 3 3 2
5 4 6 7 7 5 7 12 11 5 4 7 8 10 9 8 4 4 5 5 3 3 6 9 10 12 11 9 7 6 6 4 5 6 7 8 8 10 9 6 6 7 4 4 3 4 4 3 2
6 7 11 12 11 7 10 13 10 3 2 3 6 10 11 8 6 7 6 4 5 3 2 5 8 10 10 9 8 7 5 5 4 4 7 9 9 9 8 5 5 4 4 4 4 3 4 3 2
8 10 12 13 10 6 8 10 3 4 5 7 10 11 11 9 7 8 7 4 4 2 2 4 7 9 9 8 6 5 6 5 5 5 7 9 9 9 8 6 4 4 4 4 3 3 3 2 3
10 8 8 9 10 6 3 2 2 6 11 14 12 11 10 10 10 8 7 5 4 2 0 3 4 7 8 9 8 8 6 5 4 6 5 7 9 10 9 8 6 4 4 3 3 3 3 2 3
10 10 8 6 4 5 2 2 2 4 10 12 12 11 10 10 9 8 7 6 4 3 4 4 4 5 6 8 10 10 7 6 5 5 6 8 10 11 11 9 8 7 5 5 5 5 3 3 2
9 9 6 4 1 3 3 3 3 3 7 9 10 12 11 11 11 10 8 7 8 9 8 7 9 9 8 7 7 8 8 7 7 8 9 8 8 11 12 11 10 8 7 6 7 7 6 4 3
7 3 3 4 5 2 4 3 3 2 5 9 10 12 12 12 12 12 12 12 13 12 11 11 13 13 11 11 10 10 11 11 11 10 9 8 7 8 11 12 10 9 7 7 7 7 7 6 5
2 5 4 4 3 5 3 4 2 8 12 14 13 12 12 12 12 13 14 15 15 15 14 14 15 15 14 14 13 12 12 12 11 10 9 8 7 7 8 9 9 8 9 9 8 7 7 6 6
4 8 7 4 3 4 3 4 6 14 16 16 14 12 12 13 13 14 15 15 15 16 15 16 16 16 15 16 15 14 13 11 10 10 9 9 8 8 8 9 10 10 10 9 8 5 5 5 5
4 4 9 6 2 0 0 6 7 13 15 14 13 13 12 12 13 15 15 16 16 16 15 15 16 16 16 16 16 15 14 13 13 11 10 9 8 7 9 9 8 9 10 9 7 6 5 5 5
7 6 5 5 4 2 2 5 8 13 14 13 12 12 11 12 13 14 15 15 15 15 15 15 16 17 15 14 13 13 13 13 12 11 11 10 9 8 8 8 8 8 9 9 7 6 6 7 6
2 3 4 4 5 5 3 2 2 16 16 16 13 13 12 12 12 13 13 13 14 14 14 15 15 15 15 14 14 13 12 12 11 11 10 9 8 8 8 7 8 9 9 8 8 8 7 7 7
4 3 5 5 4 4 4 2 6 13 13 16 15 13 12 12 12 12 13 13 14 14 14 14 13 14 13 12 13 13 12 11 11 10 9 8 9 8 8 8 9 9 9 8 8 8 8 7 6
Wind_Direction
323 319 314 69 45 38 266 230 183 195 216 216 154 125 116 109 152 158 125 141 136 141 147 144 140 139 137 134 131 128 125 121 117 113 110 108 106 105 104 103 102 101 100 97 94 90 87 84 82
321 327 24 57 77 347 275 242 227 215 198 132 116 122 101 84 98 114 122 139 137 140 143 144 142 141 141 139 137 135 133 130 125 121 118 115 113 112 111 110 110 108 106 103 100 96 91 86 81
315 353 57 62 142 202 259 272 283 279 208 162 143 96 98 122 122 128 140 139 135 137 141 146 144 142 143 143 143 141 140 137 134 130 127 124 122 120 119 118 118 117 115 112 109 106 102 95 85
17 26 45 75 254 243 246 275 284 283 256 174 130 92 76 123 131 136 139 141 136 137 142 146 144 144 144 146 147 146 145 143 141 137 135 132 130 128 127 127 127 126 125 124 123 123 120 112 95
58 66 28 283 263 265 271 281 286 276 243 150 118 100 55 54 119 133 141 142 139 138 141 146 144 145 146 147 149 149 148 147 145 143 140 138 137 136 136 137 137 138 139 139 141 145 148 149 142
54 82 155 248 264 278 283 283 294 294 241 127 112 110 88 124 130 141 143 143 141 141 141 145 147 147 147 148 149 149 149 148 148 147 145 145 145 145 146 147 149 152 153 157 163 171 182 195 216
135 138 207 235 268 283 277 288 286 276 246 178 137 110 124 145 144 146 144 140 138 140 142 145 149 150 150 149 149 149 150 150 151 151 151 152 152 153 156 158 162 166 169 175 183 193 207 222 241
156 141 223 237 251 268 276 303 284 275 246 158 131 137 160 165 150 145 140 138 139 143 148 148 149 149 149 152 154 154 154 155 156 157 158 160 162 164 168 170 175 180 185 191 198 208 222 235 251
131 122 224 230 231 257 295 313 299 303 165 162 146 157 155 152 145 142 139 138 145 152 157 156 153 152 152 154 159 159 160 161 162 165 168 168 171 174 179 184 188 192 197 203 210 221 234 248 264
139 184 228 230 236 267 292 294 292 330 32 83 89 107 136 149 149 151 153 156 160 164 169 166 163 161 160 163 160 162 164 168 169 172 174 175 179 184 189 196 199 202 206 212 221 232 246 258 270
177 201 234 251 255 261 276 285 289 288 187 168 147 144 149 154 157 160 163 165 169 170 173 173 172 170 171 164 162 169 170 174 178 181 183 183 187 195 202 202 208 210 212 217 230 240 248 256 269
230 250 242 252 259 262 264 281 304 268 205 182 155 152 155 156 162 167 168 169 168 171 178 176 176 175 178 169 173 177 177 183 188 192 192 190 193 199 202 200 201 204 210 214 229 239 246 252 267
243 259 264 259 259 255 264 273 287 293 186 149 148 153 158 160 164 167 165 167 168 175 179 179 179 180 179 172 180 182 185 189 195 196 198 197 194 193 195 196 196 204 210 213 224 235 246 235 231
239 253 272 271 263 258 258 273 296 256 153 143 156 165 168 167 163 161 162 168 173 178 181 180 182 182 179 180 184 184 188 190 194 198 200 200 196 189 183 178 180 193 202 206 198 195 168 134 104
256 281 293 282 264 257 252 285 262 226 179 164 176 178 177 174 166 169 172 176 181 182 180 181 184 183 182 183 187 185 188 188 191 196 199 200 194 181 168 156 158 169 166 154 132 114 101 92 84
342 322 288 286 268 260 194 258 260 234 186 195 187 177 174 173 171 169 163 167 181 180 178 182 185 183 183 183 183 180 183 181 185 187 189 195 191 172 152 142 146 144 131 122 111 102 88 76 80
0 279 271 290 278 244 199 249 262 241 196 201 194 181 168 149 147 155 145 145 170 180 176 181 182 176 177 175 170 162 160 165 172 174 175 175 163 151 137 128 128 127 113 103 110 89 98 90 82
253 270 283 276 286 263 240 250 264 253 199 200 188 167 145 139 133 124 114 122 124 152 177 177 175 169 164 159 147 135 130 135 136 142 144 141 134 131 122 115 114 113 102 95 93 96 76 76 68
258 282 287 283 281 262 241 243 250 236 110 126 134 133 132 123 106 89 83 96 103 106 170 185 173 172 165 162 156 148 141 125 108 100 114 119 119 118 111 103 98 97 105 114 113 101 85 57 26
270 277 282 291 299 282 236 235 232 69 86 97 111 115 119 115 98 90 87 82 97 106 187 192 186 178 173 166 152 135 125 108 97 89 86 96 102 105 107 106 108 101 102 99 90 94 100 64 38
267 255 265 278 313 333 146 240 101 75 75 74 74 83 88 102 108 100 95 79 77 69 130 187 181 171 157 140 124 113 101 94 90 83 76 68 83 89 95 98 98 97 103 103 90 87 108 109 44
257 253 256 284 331 308 66 181 283 105 81 76 73 69 67 71 82 86 88 87 82 67 50 71 91 106 122 132 140 140 137 129 110 97 85 70 68 73 80 81 84 82 81 80 73 70 80 106 93
235 254 257 274 291 332 8 110 274 79 95 87 78 71 66 65 69 73 71 72 61 59 59 66 73 73 79 93 113 116 110 108 103 97 92 80 68 67 71 74 75 74 73 72 67 64 62 69 85
236 286 356 48 70 337 266 139 295 2 127 109 84 70 65 65 67 69 68 67 63 60 61 64 73 70 71 79 84 99 108 111 109 102 96 84 74 65 64 71 73 73 71 67 66 66 67 68 72
113 87 38 12 22 253 259 120 65 57 83 97 87 71 62 61 63 64 66 65 63 60 61 65 71 70 69 74 76 82 91 96 99 98 93 89 80 73 64 67 67 68 69 68 67 68 65 63 67
180 138 155 178 204 292 356 108 89 86 86 85 82 75 67 63 64 65 64 65 65 63 63 67 70 70 69 72 73 73 77 82 83 84 89 87 85 81 77 75 70 68 67 66 62 58 54 54 53
166 174 170 143 157 287 271 118 113 104 96 91 87 79 72 68 68 69 68 67 67 66 65 68 72 72 69 72 74 73 75 79 83 82 82 84 84 86 79 78 73 67 64 60 58 53 43 44 43
165 158 102 122 158 235 246 170 166 143 123 112 102 94 84 78 76 74 73 72 71 71 70 68 70 71 70 71 75 79 76 79 82 82 81 80 77 77 76 72 68 61 56 53 52 49 41 46 35
131 123 122 145 164 171 226 273 167 149 137 126 118 111 103 93 86 82 79 76 76 75 74 73 73 74 74 74 75 76 75 76 77 78 78 79 77 72 71 70 66 61 55 51 52 45 37 36 25
127 153 142 158 223 176 157 82 80 125 125 125 123 117 109 102 97 92 89 85 81 78 76 76 76 76 75 76 77 75 72 72 72 72 69 70 70 66 68 68 68 64 58 50 48 37 30 25 14
Height
1530 1529 1528 1526 1529 1538 1538 1526 1515 1512 1510 1508 1507 1508 1509 1512 1517 1524 1520 1522 1525 1529 1532 1536 1539 1542 1544 1546 1548 1550 1552 1554 1556 1558 1559 1561 1562 1563 1564 1565 1567 1568 1569 1569 1570 1571 1572 1572 1573
1529 1528 1528 1527 1537 1549 1539 1519 1513 1509 1507 1508 1509 1508 1508 1512 1513 1515 1517 1523 1526 1529 1532 1536 1539 1542 1544 1546 1549 1551 1553 1555 1556 1558 1560 1561 1562 1563 1565 1566 1567 1568 1569 1570 1571 1571 1572 1573 1574
1528 1528 1528 1529 1538 1544 1532 1515 1510 1505 1506 1505 1507 1508 1509 1512 1513 1515 1518 1523 1527 1530 1533 1536 1539 1542 1544 1547 1549 1551 1553 1555 1557 1558 1560 1561 1562 1563 1564 1566 1567 1568 1569 1570 1571 1572 1572 1573 1574
1528 1528 1528 1534 1536 1528 1520 1511 1507 1506 1505 1504 1504 1508 1510 1513 1513 1515 1519 1524 1527 1530 1534 1537 1540 1542 1545 1547 1549 1551 1553 1555 1557 1558 1560 1561 1562 1563 1564 1565 1566 1567 1568 1569 1570 1571 1572 1573 1574
1527 1528 1533 1538 1532 1519 1511 1507 1505 1504 1504 1504 1503 1507 1511 1513 1514 1517 1520 1524 1527 1530 1534 1537 1540 1543 1545 1547 1549 1551 1553 1555 1556 1558 1559 1560 1562 1563 1564 1565 1566 1567 1568 1569 1570 1571 1572 1573 1574
1526 1527 1539 1542 1529 1516 1508 1505 1504 1502 1501 1502 1502 1507 1513 1514 1515 1518 1521 1525 1528 1530 1534 1538 1541 1543 1545 1547 1549 1551 1553 1555 1556 1557 1558 1560 1561 1562 1563 1564 1565 1566 1567 1568 1569 1570 1571 1572 1573
1525 1529 1535 1533 1527 1518 1505 1502 1503 1501 1499 1500 1500 1506 1513 1515 1517 1519 1523 1526 1529 1532 1535 1538 1540 1543 1545 1547 1549 1551 1553 1554 1556 1557 1558 1559 1560 1561 1563 1564 1565 1566 1567 1567 1569 1569 1571 1572 1573
1520 1525 1528 1527 1525 1516 1502 1503 1501 1500 1497 1497 1498 1502 1509 1513 1516 1520 1524 1527 1529 1532 1535 1538 1540 1542 1545 1547 1549 1550 1552 1554 1555 1556 1557 1558 1560 1561 1562 1563 1564 1565 1566 1567 1568 1569 1570 1571 1571
1518 1527 1530 1523 1518 1510 1501 1502 1498 1498 1495 1495 1495 1497 1501 1510 1515 1519 1523 1526 1529 1532 1535 1537 1539 1542 1544 1546 1548 1550 1551 1553 1554 1555 1557 1558 1559 1560 1561 1562 1563 1564 1565 1566 1567 1568 1568 1569 1570
1514 1525 1520 1511 1509 1506 1502 1501 1498 1498 1496 1495 1495 1498 1503 1508 1512 1516 1519 1523 1527 1530 1534 1536 1539 1541 1543 1545 1547 1549 1550 1552 1553 1554 1556 1557 1558 1559 1560 1561 1562 1563 1564 1564 1565 1566 1567 1568 1569
1509 1513 1508 1505 1504 1504 1502 1499 1497 1497 1497 1494 1493 1496 1502 1507 1511 1514 1517 1520 1524 1528 1532 1535 1537 1540 1542 1544 1546 1547 1549 1551 1552 1553 1555 1556 1556 1558 1559 1560 1561 1562 1563 1564 1564 1565 1566 1568 1568
1506 1503 1502 1501 1501 1501 1499 1497 1495 1493 1494 1492 1492 1494 1500 1505 1509 1513 1515 1519 1523 1527 1530 1533 1536 1538 1540 1542 1544 1546 1548 1549 1550 1552 1553 1554 1555 1556 1557 1559 1560 1561 1562 1563 1564 1565 1566 1567 1567
1504 1501 1498 1497 1497 1497 1496 1494 1493 1490 1491 1492 1494 1495 1498 1501 1506 1512 1515 1518 1521 1525 1528 1531 1534 1536 1539 1541 1543 1545 1546 1548 1549 1551 1552 1553 1554 1555 1556 1558 1559 1561 1562 1563 1564 1564 1565 1566 1566
1498 1497 1495 1493 1493 1492 1493 1490 1490 1489 1490 1492 1494 1495 1497 1499 1503 1508 1513 1516 1519 1522 1526 1529 1531 1534 1537 1539 1541 1543 1545 1547 1548 1550 1551 1552 1553 1554 1556 1557 1558 1560 1561 1562 1563 1563 1564 1565 1565
1496 1497 1494 1490 1488 1488 1490 1491 1487 1488 1489 1491 1493 1495 1496 1498 1500 1504 1509 1513 1517 1520 1523 1526 1529 1531 1534 1537 1539 1541 1543 1545 1546 1548 1550 1551 1552 1553 1555 1556 1557 1559 1560 1561 1561 1562 1563 1564 1564
1496 1499 1502 1491 1486 1485 1492 1498 1484 1485 1488 1489 1491 1493 1495 1496 1498 1502 1507 1511 1515 1518 1520 1524 1527 1528 1531 1534 1537 1540 1542 1543 1545 1546 1548 1550 1551 1552 1553 1555 1556 1557 1558 1559 1560 1561 1561 1562 1563
1502 1507 1504 1495 1484 1484 1489 1492 1480 1482 1484 1486 1488 1491 1493 1495 1498 1501 1505 1509 1513 1516 1519 1521 1523 1526 1528 1532 1535 1538 1540 1541 1543 1545 1547 1548 1550 1551 1552 1553 1554 1556 1557 1558 1558 1559 1560 1560 1561
1509 1506 1502 1499 1487 1485 1489 1487 1479 1479 1481 1482 1485 1488 1492 1494 1496 1500 1502 1507 1511 1514 1517 1519 1521 1524 1527 1530 1533 1535 1538 1540 1542 1543 1545 1547 1548 1549 1550 1551 1552 1553 1554 1555 1556 1557 1557 1557 1557
1499 1501 1502 1494 1484 1485 1486 1483 1479 1479 1481 1481 1484 1487 1490 1492 1495 1498 1502 1505 1508 1511 1514 1517 1519 1521 1524 1527 1530 1532 1534 1537 1539 1541 1543 1544 1546 1547 1548 1549 1549 1550 1551 1552 1553 1553 1554 1554 1554
1497 1501 1499 1490 1480 1481 1482 1482 1480 1482 1483 1483 1485 1487 1489 1491 1494 1496 1499 1502 1505 1507 1511 1513 1515 1518 1522 1525 1527 1529 1532 1535 1537 1538 1540 1541 1542 1543 1544 1545 1546 1547 1548 1549 1550 1550 1550 1550 1551
1496 1499 1496 1493 1483 1478 1481 1488 1487 1488 1487 1488 1490 1491 1491 1492 1493 1496 1498 1501 1502 1505 1507 1509 1512 1515 1519 1522 1525 1527 1530 1532 1534 1535 1537 1538 1539 1540 1541 1542 1542 1543 1544 1546 1546 1547 1547 1548 1548
1497 1486 1486 1486 1493 1498 1489 1506 1494 1491 1494 1495 1497 1497 1497 1496 1495 1497 1498 1500 1501 1503 1504 1506 1510 1513 1517 1520 1522 1524 1526 1528 1530 1532 1534 1536 1537 1538 1539 1539 1540 1540 1542 1543 1543 1543 1544 1545 1545
1486 1480 1481 1483 1489 1497 1494 1504 1502 1493 1499 1502 1503 1503 1502 1501 1500 1499 1500 1501 1502 1504 1505 1506 1510 1513 1515 1518 1520 1522 1524 1526 1528 1531 1532 1534 1535 1536 1537 1538 1538 1539 1540 1540 1541 1541 1542 1542 1542
1477 1479 1482 1488 1498 1510 1498 1503 1508 1501 1499 1504 1507 1508 1508 1507 1505 1504 1503 1504 1504 1505 1507 1508 1509 1511 1513 1516 1518 1520 1523 1525 1527 1529 1531 1532 1534 1535 1536 1537 1537 1537 1538 1539 1539 1540 1540 1540 1540
1478 1494 1510 1511 1518 1514 1495 1502 1511 1504 1502 1506 1510 1512 1512 1511 1510 1508 1507 1507 1508 1508 1509 1510 1511 1513 1515 1517 1519 1521 1523 1525 1527 1529 1531 1532 1533 1534 1535 1536 1537 1537 1538 1539 1539 1539 1539 1539 1538
1480 1491 1512 1519 1519 1512 1498 1508 1512 1509 1510 1513 1515 1516 1517 1516 1514 1513 1512 1512 1512 1513 1513 1513 1514 1514 1516 1517 1520 1522 1524 1526 1528 1529 1531 1532 1533 1535 1536 1536 1537 1537 1538 1538 1539 1539 1539 1538 1538
1479 1487 1489 1503 1505 1512 1510 1510 1513 1512 1514 1517 1519 1520 1521 1520 1519 1518 1517 1516 1517 1517 1518 1518 1518 1518 1519 1521 1522 1524 1526 1527 1529 1531 1533 1534 1535 1536 1537 1538 1538 1539 1539 1539 1539 1539 1539 1538 1537
1471 1477 1493 1505 1515 1519 1509 1509 1511 1512 1515 1519 1521 1523 1524 1524 1523 1522 1521 1521 1522 1522 1523 1522 1522 1523 1524 1526 1526 1528 1529 1531 1532 1534 1535 1536 1537 1538 1539 1539 1539 1540 1540 1539 1539 1539 1538 1537 1536
1476 1481 1489 1500 1504 1514 1517 1516 1502 1507 1511 1517 1522 1524 1525 1526 1527 1526 1526 1526 1527 1527 1527 1527 1528 1528 1530 1530 1531 1532 1533 1534 1535 1536 1537 1538 1539 1540 1540 1540 1541 1540 1540 1540 1539 1538 1537 1536 1535
1474 1480 1488 1503 1503 1503 1512 1519 1506 1509 1514 1517 1523 1526 1527 1528 1529 1530 1530 1530 1531 1532 1532 1532 1533 1533 1534 1535 1535 1536 1537 1538 1538 1539 1540 1540 1541 1541 1541 1541 1541 1541 1540 1540 1539 1538 1536 1535 1533